BEIDOU-3 M4 (C22)

Last updated on Sat Aug 15 2026 00:03:26 GMT+0000 (Coordinated Universal Time)

1 43207U 18018A 26225.65561772 -.00000033 00000+0 00000+0 0 9995 2 43207 56.7028 61.2549 0006888 37.8313 322.2818 1.86230972 57813
UTC large
Height (km)
Speed (km/s)
/
Latitude / Longitude
Inclination (degrees)
Orbital Period (minutes)
Azimuth
Elevation
Range (km)
Doppler Factor

Next 0 passes for location: London (51.5072 / 0.1276)

No passes found over London.
BEIDOU-3 M4 (C22)